Time,TemperatureF,DewpointF,PressureIn,WindDirection,WindDirectionDegrees,WindSpeedMPH,WindSpeedGustMPH,Humidity,HourlyPrecipIn,Conditions,Clouds,dailyrainin,SoftwareType,DateUTC
2013-04-26 00:03:00,47.5,42.6,29.50,West,270,0.0,0.0,83,0.00,CLR,,0.00,WeatherDisplay:10.37,2013-04-26 07:03:00,
2013-04-26 00:08:00,47.3,42.7,29.51,West,270,0.0,0.0,84,0.00,CLR,,0.00,WeatherDisplay:10.37,2013-04-26 07:08:00,
2013-04-26 00:13:00,47.1,42.5,29.50,West,270,0.0,0.0,84,0.00,CLR,,0.00,WeatherDisplay:10.37,2013-04-26 07:13:00,
2013-04-26 00:18:00,46.9,42.7,29.51,West,270,0.0,0.0,85,0.00,CLR,,0.00,WeatherDisplay:10.37,2013-04-26 07:18:00,
2013-04-26 00:23:00,46.8,42.5,29.51,West,270,0.0,0.0,85,0.00,CLR,,0.00,WeatherDisplay:10.37,2013-04-26 07:23:00,
2013-04-26 00:28:00,46.6,42.3,29.51,West,270,0.0,0.0,85,0.00,CLR,,0.00,WeatherDisplay:10.37,2013-04-26 07:28:00,
2013-04-26 00:33:00,46.4,42.1,29.51,West,270,0.0,0.0,85,0.00,CLR,,0.00,WeatherDisplay:10.37,2013-04-26 07:33:00,
2013-04-26 00:38:00,46.6,42.9,29.52,West,270,1.1,0.0,87,0.00,CLR,,0.00,WeatherDisplay:10.37,2013-04-26 07:38:00,
2013-04-26 00:43:00,46.9,43.9,29.52,West,270,1.1,0.0,89,0.00,CLR,,0.00,WeatherDisplay:10.37,2013-04-26 07:43:00,
2013-04-26 00:48:00,47.3,44.5,29.52,West,270,2.3,2.3,90,0.00,CLR,,0.00,WeatherDisplay:10.37,2013-04-26 07:48:00,
2013-04-26 00:53:00,47.5,44.7,29.53,West,270,1.1,0.0,90,0.00,CLR,,0.00,WeatherDisplay:10.37,2013-04-26 07:53:00,
2013-04-26 00:58:00,47.5,44.7,29.53,West,270,1.1,1.1,90,0.00,CLR,,0.00,WeatherDisplay:10.37,2013-04-26 07:58:00,
2013-04-26 01:03:00,47.5,44.7,29.53,West,270,1.1,0.0,90,0.00,CLR,,0.00,WeatherDisplay:10.37,2013-04-26 08:03:00,
2013-04-26 01:08:00,47.1,44.3,29.53,North,0,1.1,0.0,90,0.00,CLR,,0.00,WeatherDisplay:10.37,2013-04-26 08:08:00,
2013-04-26 01:13:00,47.1,44.3,29.53,West,270,1.1,0.0,90,0.00,CLR,,0.00,WeatherDisplay:10.37,2013-04-26 08:13:00,
2013-04-26 01:18:00,47.1,44.6,29.53,SW,225,1.1,0.0,91,0.00,CLR,,0.00,WeatherDisplay:10.37,2013-04-26 08:18:00,
2013-04-26 01:23:00,46.9,44.2,29.53,SW,225,0.0,0.0,90,0.00,CLR,,0.00,WeatherDisplay:10.37,2013-04-26 08:23:00,
2013-04-26 01:28:00,46.6,43.8,29.53,West,270,1.1,0.0,90,0.00,CLR,,0.00,WeatherDisplay:10.37,2013-04-26 08:28:00,
2013-04-26 01:33:00,46.8,44.0,29.52,South,180,0.0,0.0,90,0.00,CLR,,0.00,WeatherDisplay:10.37,2013-04-26 08:33:00,
2013-04-26 01:38:00,46.2,43.4,29.53,South,180,0.0,0.0,90,0.00,CLR,,0.00,WeatherDisplay:10.37,2013-04-26 08:38:00,
2013-04-26 01:43:00,46.0,43.3,29.53,East,90,0.0,0.0,90,0.00,CLR,,0.00,WeatherDisplay:10.37,2013-04-26 08:43:00,
2013-04-26 01:48:00,46.0,43.3,29.53,SW,225,0.0,0.0,90,0.00,CLR,,0.00,WeatherDisplay:10.37,2013-04-26 08:48:00,
2013-04-26 01:53:00,46.0,43.6,29.53,West,270,1.6,1.6,91,0.00,CLR,,0.00,WeatherDisplay:10.37,2013-04-26 08:53:00,
2013-04-26 01:58:00,46.2,44.0,29.53,West,270,2.3,0.0,92,0.00,CLR,,0.00,WeatherDisplay:10.37,2013-04-26 08:58:00,
2013-04-26 02:03:00,46.2,44.0,29.54,West,270,2.3,2.3,92,0.00,CLR,,0.00,WeatherDisplay:10.37,2013-04-26 09:03:00,
2013-04-26 02:08:00,46.4,44.5,29.54,West,270,1.1,0.0,93,0.00,CLR,,0.00,WeatherDisplay:10.37,2013-04-26 09:08:00,
2013-04-26 02:13:00,46.2,44.3,29.54,West,270,1.1,0.0,93,0.00,CLR,,0.00,WeatherDisplay:10.37,2013-04-26 09:13:00,
2013-04-26 02:18:00,46.2,44.3,29.54,SW,225,2.3,0.0,93,0.00,CLR,,0.00,WeatherDisplay:10.37,2013-04-26 09:18:00,
2013-04-26 02:23:00,46.2,44.3,29.53,West,270,2.3,2.3,93,0.00,CLR,,0.00,WeatherDisplay:10.37,2013-04-26 09:23:00,
2013-04-26 02:28:00,46.2,44.3,29.54,West,270,1.1,0.0,93,0.00,CLR,,0.00,WeatherDisplay:10.37,2013-04-26 09:28:00,
2013-04-26 02:33:00,46.2,44.3,29.54,West,270,2.3,2.3,93,0.00,CLR,,0.00,WeatherDisplay:10.37,2013-04-26 09:33:00,
2013-04-26 02:38:00,46.0,44.1,29.55,West,270,1.1,1.1,93,0.00,CLR,,0.00,WeatherDisplay:10.37,2013-04-26 09:38:00,
2013-04-26 02:43:00,46.0,44.1,29.54,SW,225,1.1,0.0,93,0.00,CLR,,0.00,WeatherDisplay:10.37,2013-04-26 09:43:00,
2013-04-26 02:49:00,45.7,43.8,29.54,SW,225,0.0,0.0,93,0.00,CLR,,0.00,WeatherDisplay:10.37,2013-04-26 09:49:00,
2013-04-26 02:54:00,45.3,43.1,29.54,SW,225,0.0,0.0,92,0.00,CLR,,0.00,WeatherDisplay:10.37,2013-04-26 09:54:00,
2013-04-26 02:59:00,45.1,43.0,29.55,SW,225,0.0,0.0,92,0.00,CLR,,0.00,WeatherDisplay:10.37,2013-04-26 09:59:00,
2013-04-26 03:04:00,45.0,42.8,29.54,SW,225,0.0,0.0,92,0.00,CLR,,0.00,WeatherDisplay:10.37,2013-04-26 10:04:00,
2013-04-26 03:09:00,44.8,42.9,29.55,SW,225,0.0,0.0,93,0.00,CLR,,0.00,WeatherDisplay:10.37,2013-04-26 10:09:00,
2013-04-26 03:14:00,44.6,42.4,29.55,SW,225,0.0,0.0,92,0.00,CLR,,0.00,WeatherDisplay:10.37,2013-04-26 10:14:00,
2013-04-26 03:19:00,44.4,42.2,29.55,SW,225,0.0,0.0,92,0.00,CLR,,0.00,WeatherDisplay:10.37,2013-04-26 10:19:00,
2013-04-26 03:24:00,44.1,41.9,29.55,SW,225,0.0,0.0,92,0.00,CLR,,0.00,WeatherDisplay:10.37,2013-04-26 10:24:00,
2013-04-26 03:29:00,44.1,42.2,29.55,SW,225,0.0,0.0,93,0.00,CLR,,0.00,WeatherDisplay:10.37,2013-04-26 10:29:00,
2013-04-26 03:34:00,43.9,42.0,29.55,SW,225,0.0,0.0,93,0.00,CLR,,0.00,WeatherDisplay:10.37,2013-04-26 10:34:00,
2013-04-26 03:39:00,43.7,41.8,29.55,East,90,0.0,0.0,93,0.00,CLR,,0.00,WeatherDisplay:10.37,2013-04-26 10:39:00,
2013-04-26 03:44:00,43.7,41.5,29.55,East,90,0.0,0.0,92,0.00,CLR,,0.00,WeatherDisplay:10.37,2013-04-26 10:44:00,
2013-04-26 03:49:00,43.5,41.6,29.55,East,90,0.0,0.0,93,0.00,CLR,,0.00,WeatherDisplay:10.37,2013-04-26 10:49:00,
2013-04-26 03:54:00,43.3,41.2,29.56,East,90,0.0,0.0,92,0.00,CLR,,0.00,WeatherDisplay:10.37,2013-04-26 10:54:00,
2013-04-26 03:59:00,43.2,41.0,29.55,East,90,0.0,0.0,92,0.00,CLR,,0.00,WeatherDisplay:10.37,2013-04-26 10:59:00,
2013-04-26 04:04:00,43.0,40.8,29.55,East,90,0.0,0.0,92,0.00,CLR,,0.00,WeatherDisplay:10.37,2013-04-26 11:04:00,
2013-04-26 04:09:00,43.0,41.1,29.55,East,90,0.0,0.0,93,0.00,CLR,,0.00,WeatherDisplay:10.37,2013-04-26 11:09:00,
2013-04-26 04:14:00,42.8,40.9,29.55,East,90,0.0,0.0,93,0.00,CLR,,0.00,WeatherDisplay:10.37,2013-04-26 11:14:00,
2013-04-26 04:19:00,42.6,40.5,29.55,East,90,0.0,0.0,92,0.00,CLR,,0.00,WeatherDisplay:10.37,2013-04-26 11:19:00,
2013-04-26 04:24:00,42.6,40.7,29.55,SE,135,0.0,0.0,93,0.00,CLR,,0.00,WeatherDisplay:10.37,2013-04-26 11:24:00,
2013-04-26 04:29:00,42.4,40.3,29.55,SE,135,0.0,0.0,92,0.00,CLR,,0.00,WeatherDisplay:10.37,2013-04-26 11:29:00,
2013-04-26 04:34:00,42.3,40.4,29.55,SE,135,0.0,0.0,93,0.00,CLR,,0.00,WeatherDisplay:10.37,2013-04-26 11:34:00,
2013-04-26 04:39:00,42.3,40.4,29.56,SE,135,0.0,0.0,93,0.00,CLR,,0.00,WeatherDisplay:10.37,2013-04-26 11:39:00,
2013-04-26 04:44:00,42.3,40.4,29.55,SE,135,0.0,0.0,93,0.00,CLR,,0.00,WeatherDisplay:10.37,2013-04-26 11:44:00,
2013-04-26 04:49:00,42.1,40.2,29.55,SE,135,0.0,0.0,93,0.00,CLR,,0.00,WeatherDisplay:10.37,2013-04-26 11:49:00,
2013-04-26 04:54:00,41.9,40.0,29.55,SE,135,0.0,0.0,93,0.00,CLR,,0.00,WeatherDisplay:10.37,2013-04-26 11:54:00,
2013-04-26 04:59:00,41.9,40.0,29.55,SE,135,0.0,0.0,93,0.00,CLR,,0.00,WeatherDisplay:10.37,2013-04-26 11:59:00,
2013-04-26 05:04:00,41.9,40.0,29.55,SE,135,0.0,0.0,93,0.00,CLR,,0.00,WeatherDisplay:10.37,2013-04-26 12:04:00,
2013-04-26 05:09:00,41.7,39.8,29.56,SE,135,0.0,0.0,93,0.00,CLR,,0.00,WeatherDisplay:10.37,2013-04-26 12:09:00,
2013-04-26 05:14:00,41.7,39.8,29.57,SE,135,0.0,0.0,93,0.00,CLR,,0.00,WeatherDisplay:10.37,2013-04-26 12:14:00,
2013-04-26 05:19:00,41.9,40.3,29.56,SW,225,0.0,0.0,94,0.00,CLR,,0.00,WeatherDisplay:10.37,2013-04-26 12:19:00,
2013-04-26 05:24:00,42.3,40.7,29.56,SW,225,0.0,0.0,94,0.00,CLR,,0.00,WeatherDisplay:10.37,2013-04-26 12:24:00,
2013-04-26 05:29:00,42.4,40.8,29.57,SW,225,0.0,0.0,94,0.00,CLR,,0.00,WeatherDisplay:10.37,2013-04-26 12:29:00,
2013-04-26 05:34:00,42.6,41.0,29.57,SW,225,0.0,0.0,94,0.00,CLR,,0.00,WeatherDisplay:10.37,2013-04-26 12:34:00,
2013-04-26 05:39:00,42.6,41.0,29.56,SW,225,0.0,0.0,94,0.00,CLR,,0.00,WeatherDisplay:10.37,2013-04-26 12:39:00,
2013-04-26 05:44:00,43.2,41.6,29.56,West,270,0.0,0.0,94,0.00,CLR,,0.00,WeatherDisplay:10.37,2013-04-26 12:44:00,
2013-04-26 05:50:00,43.3,41.7,29.57,West,270,0.0,0.0,94,0.00,CLR,,0.00,WeatherDisplay:10.37,2013-04-26 12:50:00,
2013-04-26 05:55:00,43.3,42.0,29.57,West,270,1.1,0.0,95,0.00,CLR,,0.00,WeatherDisplay:10.37,2013-04-26 12:55:00,
2013-04-26 06:00:00,43.3,42.0,29.57,SW,225,1.1,0.0,95,0.00,CLR,,0.00,WeatherDisplay:10.37,2013-04-26 13:00:00,
2013-04-26 06:05:00,43.2,41.8,29.57,SW,225,0.0,0.0,95,0.00,CLR,,0.00,WeatherDisplay:10.37,2013-04-26 13:05:00,
2013-04-26 06:10:00,43.2,41.8,29.57,SW,225,0.0,0.0,95,0.00,CLR,,0.00,WeatherDisplay:10.37,2013-04-26 13:10:00,
2013-04-26 06:15:00,43.3,42.0,29.57,SW,225,1.1,0.0,95,0.00,CLR,,0.00,WeatherDisplay:10.37,2013-04-26 13:15:00,
2013-04-26 06:20:00,43.2,41.8,29.57,SW,225,0.0,0.0,95,0.00,CLR,,0.00,WeatherDisplay:10.37,2013-04-26 13:20:00,
2013-04-26 06:25:00,43.3,42.0,29.57,SW,225,0.0,0.0,95,0.00,CLR,,0.00,WeatherDisplay:10.37,2013-04-26 13:25:00,
2013-04-26 06:30:00,43.2,41.8,29.57,West,270,0.0,0.0,95,0.00,CLR,,0.00,WeatherDisplay:10.37,2013-04-26 13:30:00,
2013-04-26 06:35:00,43.3,42.0,29.57,West,270,0.0,0.0,95,0.00,CLR,,0.00,WeatherDisplay:10.37,2013-04-26 13:35:00,
2013-04-26 06:40:00,43.3,42.0,29.57,East,90,0.0,0.0,95,0.00,CLR,,0.00,WeatherDisplay:10.37,2013-04-26 13:40:00,
2013-04-26 06:45:00,43.5,42.2,29.57,East,90,1.1,0.0,95,0.00,CLR,,0.00,WeatherDisplay:10.37,2013-04-26 13:45:00,
2013-04-26 06:50:00,43.5,42.2,29.57,East,90,1.1,0.0,95,0.00,CLR,,0.00,WeatherDisplay:10.37,2013-04-26 13:50:00,
2013-04-26 06:55:00,43.5,42.2,29.57,East,90,0.0,0.0,95,0.00,CLR,,0.00,WeatherDisplay:10.37,2013-04-26 13:55:00,
2013-04-26 07:00:00,43.7,42.4,29.58,East,90,0.0,0.0,95,0.00,CLR,,0.00,WeatherDisplay:10.37,2013-04-26 14:00:00,
2013-04-26 07:05:00,43.9,42.5,29.58,West,270,1.1,0.0,95,0.00,CLR,,0.00,WeatherDisplay:10.37,2013-04-26 14:05:00,
2013-04-26 07:10:00,44.1,42.7,29.58,West,270,0.0,0.0,95,0.00,CLR,,0.00,WeatherDisplay:10.37,2013-04-26 14:10:00,
2013-04-26 07:15:00,44.1,42.7,29.58,West,270,0.0,0.0,95,0.00,CLR,,0.00,WeatherDisplay:10.37,2013-04-26 14:15:00,
2013-04-26 07:20:00,44.2,42.9,29.58,West,270,0.0,0.0,95,0.00,CLR,,0.00,WeatherDisplay:10.37,2013-04-26 14:20:00,
2013-04-26 07:25:00,44.2,42.9,29.58,West,270,1.1,0.0,95,0.00,CLR,,0.00,WeatherDisplay:10.37,2013-04-26 14:25:00,
2013-04-26 07:30:00,44.2,42.9,29.59,West,270,1.1,0.0,95,0.00,CLR,,0.00,WeatherDisplay:10.37,2013-04-26 14:30:00,
2013-04-26 07:35:00,44.4,43.1,29.59,West,270,0.0,0.0,95,0.00,CLR,,0.00,WeatherDisplay:10.37,2013-04-26 14:35:00,
2013-04-26 07:40:00,45.0,43.6,29.59,West,270,0.0,0.0,95,0.00,CLR,,0.00,WeatherDisplay:10.37,2013-04-26 14:40:00,
2013-04-26 07:45:00,45.3,44.0,29.59,West,270,1.1,0.0,95,0.00,CLR,,0.00,WeatherDisplay:10.37,2013-04-26 14:45:00,
2013-04-26 07:50:00,45.9,44.5,29.59,NE,45,1.1,0.0,95,0.00,CLR,,0.00,WeatherDisplay:10.37,2013-04-26 14:50:00,
2013-04-26 07:55:00,45.9,44.5,29.59,SW,225,0.0,0.0,95,0.00,CLR,,0.00,WeatherDisplay:10.37,2013-04-26 14:55:00,
2013-04-26 08:00:00,45.5,44.2,29.59,West,270,1.1,0.0,95,0.00,CLR,,0.00,WeatherDisplay:10.37,2013-04-26 15:00:00,
2013-04-26 08:05:00,45.5,44.2,29.59,SW,225,1.1,0.0,95,0.00,CLR,,0.00,WeatherDisplay:10.37,2013-04-26 15:05:00,
2013-04-26 08:10:00,45.9,44.5,29.59,SE,135,1.1,0.0,95,0.00,CLR,,0.00,WeatherDisplay:10.37,2013-04-26 15:10:00,
2013-04-26 08:15:00,46.2,44.9,29.59,West,270,1.1,0.0,95,0.00,CLR,,0.00,WeatherDisplay:10.37,2013-04-26 15:15:00,
2013-04-26 08:20:00,46.6,45.2,29.59,West,270,1.1,0.0,95,0.00,CLR,,0.00,WeatherDisplay:10.37,2013-04-26 15:20:00,
2013-04-26 08:25:00,47.1,45.8,29.59,SW,225,1.1,0.0,95,0.00,CLR,,0.00,WeatherDisplay:10.37,2013-04-26 15:25:00,
2013-04-26 08:30:00,47.8,46.2,29.59,West,270,1.1,0.0,94,0.00,CLR,,0.00,WeatherDisplay:10.37,2013-04-26 15:30:00,
2013-04-26 08:35:00,47.8,46.2,29.60,West,270,2.3,2.3,94,0.00,CLR,,0.00,WeatherDisplay:10.37,2013-04-26 15:35:00,
2013-04-26 08:40:00,47.3,45.4,29.60,West,270,1.1,0.0,93,0.00,CLR,,0.00,WeatherDisplay:10.37,2013-04-26 15:40:00,
2013-04-26 08:45:00,47.1,44.9,29.60,West,270,1.0,0.0,92,0.00,CLR,CLR,0.00,WeatherDisplay:10.37,2013-04-26 15:45:00,
2013-04-26 08:50:00,47.3,45.4,29.60,West,270,1.1,1.1,93,0.00,CLR,,0.00,WeatherDisplay:10.37,2013-04-26 15:50:00,
2013-04-26 08:55:00,48.3,46.7,29.59,West,274,0.0,0.0,94,0.00,CLR,CLR,0.00,WeatherDisplay:10.37,2013-04-26 15:55:00,
2013-04-26 09:00:00,50.8,48.8,29.59,West,271,0.0,0.0,93,0.00,CLR,CLR,0.00,WeatherDisplay:10.37,2013-04-26 16:00:00,
2013-04-26 09:05:00,53.6,51.3,29.60,North,0,2.3,0.0,92,0.00,CLR,,0.00,WeatherDisplay:10.37,2013-04-26 16:05:00,
2013-04-26 09:10:00,54.9,51.7,29.59,West,272,0.0,0.0,89,0.00,CLR,CLR,0.00,WeatherDisplay:10.37,2013-04-26 16:10:00,
2013-04-26 09:15:00,57.0,52.2,29.59,NW,315,1.1,1.1,84,0.00,CLR,,0.00,WeatherDisplay:10.37,2013-04-26 16:15:00,
2013-04-26 09:20:00,57.4,50.6,29.59,SE,135,3.8,3.8,78,0.00,CLR,,0.00,WeatherDisplay:10.37,2013-04-26 16:20:00,
2013-04-26 09:25:00,57.6,50.4,29.59,ENE,76,0.0,0.0,77,0.00,CLR,CLR,0.00,WeatherDisplay:10.37,2013-04-26 16:25:00,
2013-04-26 09:30:00,57.4,49.2,29.59,West,270,2.3,2.3,74,0.00,CLR,,0.00,WeatherDisplay:10.37,2013-04-26 16:30:00,
2013-04-26 09:35:00,57.3,49.4,29.60,West,265,0.0,0.0,75,0.00,CLR,CLR,0.00,WeatherDisplay:10.37,2013-04-26 16:35:00,
2013-04-26 09:40:00,57.8,49.9,29.59,WSW,257,0.0,0.0,75,0.00,CLR,CLR,0.00,WeatherDisplay:10.37,2013-04-26 16:40:00,
2013-04-26 09:45:00,57.7,49.5,29.59,NW,315,3.5,3.5,74,0.00,CLR,,0.00,WeatherDisplay:10.37,2013-04-26 16:45:00,
2013-04-26 09:50:00,57.9,49.7,29.59,West,270,3.5,0.0,74,0.00,CLR,,0.00,WeatherDisplay:10.37,2013-04-26 16:50:00,
2013-04-26 09:55:00,58.7,50.1,29.59,West,277,1.0,0.0,73,0.00,CLR,CLR,0.00,WeatherDisplay:10.37,2013-04-26 16:55:00,
2013-04-26 10:00:00,57.6,49.0,29.59,West,270,3.5,3.5,73,0.00,CLR,,0.00,WeatherDisplay:10.37,2013-04-26 17:00:00,
2013-04-26 10:05:00,57.7,49.5,29.59,NW,315,3.5,0.0,74,0.00,CLR,,0.00,WeatherDisplay:10.37,2013-04-26 17:05:00,
2013-04-26 10:10:00,58.4,50.1,29.59,West,277,1.0,0.0,74,0.00,CLR,CLR,0.00,WeatherDisplay:10.37,2013-04-26 17:10:00,
2013-04-26 10:15:00,59.2,50.5,29.59,SE,135,2.3,0.0,73,0.00,CLR,,0.00,WeatherDisplay:10.37,2013-04-26 17:15:00,
2013-04-26 10:20:00,59.2,49.4,29.59,West,270,4.6,4.6,70,0.00,CLR,,0.00,WeatherDisplay:10.37,2013-04-26 17:20:00,
2013-04-26 10:25:00,58.9,49.9,29.60,West,268,1.0,0.0,72,0.00,CLR,CLR,0.00,WeatherDisplay:10.37,2013-04-26 17:25:00,
2013-04-26 10:30:00,59.0,49.6,29.60,West,270,4.6,4.6,71,0.00,CLR,,0.00,WeatherDisplay:10.37,2013-04-26 17:30:00,
2013-04-26 10:35:00,59.2,49.8,29.60,West,273,2.0,0.0,71,0.00,CLR,CLR,0.00,WeatherDisplay:10.37,2013-04-26 17:35:00,
2013-04-26 10:40:00,59.0,50.0,29.59,NW,315,5.8,5.8,72,0.00,CLR,,0.00,WeatherDisplay:10.37,2013-04-26 17:40:00,
2013-04-26 10:45:00,59.0,50.0,29.60,West,278,1.0,0.0,72,0.00,CLR,CLR,0.00,WeatherDisplay:10.37,2013-04-26 17:45:00,
2013-04-26 10:50:00,59.4,50.0,29.59,West,272,2.0,0.0,71,0.00,CLR,CLR,0.00,WeatherDisplay:10.37,2013-04-26 17:50:00,
2013-04-26 10:55:00,59.9,50.1,29.60,West,270,2.3,2.3,70,0.00,CLR,,0.00,WeatherDisplay:10.37,2013-04-26 17:55:00,
2013-04-26 11:00:00,60.4,50.2,29.60,West,270,2.3,2.3,69,0.00,CLR,,0.00,WeatherDisplay:10.37,2013-04-26 18:00:00,
2013-04-26 11:05:00,60.5,49.9,29.60,West,276,1.0,0.0,68,0.00,CLR,CLR,0.00,WeatherDisplay:10.37,2013-04-26 18:05:00,
2013-04-26 11:10:00,60.6,50.0,29.60,SW,225,3.5,3.5,68,0.00,CLR,,0.00,WeatherDisplay:10.37,2013-04-26 18:10:00,
2013-04-26 11:15:00,60.7,49.7,29.60,West,259,1.0,0.0,67,0.00,CLR,CLR,0.00,WeatherDisplay:10.37,2013-04-26 18:15:00,
2013-04-26 11:20:00,61.2,50.1,29.60,West,270,2.3,0.0,67,0.00,CLR,,0.00,WeatherDisplay:10.37,2013-04-26 18:20:00,
2013-04-26 11:25:00,62.1,50.2,29.60,NW,315,2.3,2.3,65,0.00,CLR,,0.00,WeatherDisplay:10.37,2013-04-26 18:25:00,
2013-04-26 11:30:00,62.5,50.6,29.60,West,274,0.0,0.0,65,0.00,CLR,CLR,0.00,WeatherDisplay:10.37,2013-04-26 18:30:00,
2013-04-26 11:35:00,62.8,50.0,29.60,West,270,3.5,3.5,63,0.00,CLR,,0.00,WeatherDisplay:10.37,2013-04-26 18:35:00,
2013-04-26 11:40:00,63.5,51.1,29.61,West,270,3.5,3.5,64,0.00,CLR,,0.00,WeatherDisplay:10.37,2013-04-26 18:40:00,
2013-04-26 11:45:00,63.9,51.0,29.60,West,270,2.3,2.3,63,0.00,CLR,,0.00,WeatherDisplay:10.37,2013-04-26 18:45:00,
2013-04-26 11:50:00,64.3,51.4,29.60,West,261,0.0,0.0,63,0.00,CLR,CLR,0.00,WeatherDisplay:10.37,2013-04-26 18:50:00,
2013-04-26 11:55:00,65.5,51.7,29.60,West,270,3.5,3.5,61,0.00,CLR,,0.00,WeatherDisplay:10.37,2013-04-26 18:55:00,
2013-04-26 12:00:00,66.0,50.8,29.60,WSW,244,1.0,0.0,58,0.00,CLR,CLR,0.00,WeatherDisplay:10.37,2013-04-26 19:00:00,
2013-04-26 12:05:00,64.9,49.8,29.59,West,270,3.5,3.5,58,0.00,CLR,,0.00,WeatherDisplay:10.37,2013-04-26 19:05:00,
2013-04-26 12:10:00,65.1,51.3,29.59,SW,225,1.1,0.0,61,0.00,CLR,,0.00,WeatherDisplay:10.37,2013-04-26 19:10:00,
2013-04-26 12:15:00,66.3,51.6,29.59,WNW,293,1.0,0.0,59,0.00,CLR,CLR,0.00,WeatherDisplay:10.37,2013-04-26 19:15:00,
2013-04-26 12:20:00,67.1,50.9,29.60,West,270,3.5,3.5,56,0.00,CLR,,0.00,WeatherDisplay:10.37,2013-04-26 19:20:00,
2013-04-26 12:25:00,66.4,49.7,29.60,West,274,1.0,0.0,55,0.00,CLR,CLR,0.00,WeatherDisplay:10.37,2013-04-26 19:25:00,
2013-04-26 12:30:00,66.9,51.7,29.60,West,270,1.1,0.0,58,0.00,CLR,,0.00,WeatherDisplay:10.37,2013-04-26 19:30:00,
2013-04-26 12:35:00,67.4,50.6,29.60,West,269,1.0,0.0,55,0.00,CLR,CLR,0.00,WeatherDisplay:10.37,2013-04-26 19:35:00,
2013-04-26 12:40:00,66.4,49.3,29.60,West,264,1.0,0.0,54,0.00,CLR,CLR,0.00,WeatherDisplay:10.37,2013-04-26 19:40:00,
2013-04-26 12:45:00,67.8,51.1,29.60,SW,225,1.1,1.1,55,0.00,CLR,,0.00,WeatherDisplay:10.37,2013-04-26 19:45:00,
2013-04-26 12:50:00,69.4,51.6,29.60,NE,45,3.1,3.1,53,0.00,CLR,,0.00,WeatherDisplay:10.37,2013-04-26 19:50:00,
2013-04-26 12:55:00,70.3,51.3,29.60,NE,41,1.0,0.0,51,0.00,CLR,CLR,0.00,WeatherDisplay:10.37,2013-04-26 19:55:00,
2013-04-26 13:00:00,70.9,50.2,29.60,SE,135,1.1,1.1,48,0.00,CLR,,0.00,WeatherDisplay:10.37,2013-04-26 20:00:00,
2013-04-26 13:05:00,70.0,48.8,29.60,West,270,4.6,4.6,47,0.00,CLR,,0.00,WeatherDisplay:10.37,2013-04-26 20:05:00,
2013-04-26 13:10:00,70.2,49.0,29.59,West,276,1.0,0.0,47,0.00,CLR,CLR,0.00,WeatherDisplay:10.37,2013-04-26 20:10:00,
2013-04-26 13:15:00,69.4,48.9,29.59,West,266,0.0,0.0,48,0.00,CLR,CLR,0.00,WeatherDisplay:10.37,2013-04-26 20:15:00,
2013-04-26 13:20:00,70.7,49.5,29.59,SW,235,0.0,0.0,47,0.00,CLR,CLR,0.00,WeatherDisplay:10.37,2013-04-26 20:20:00,
2013-04-26 13:25:00,70.0,49.4,29.59,WSW,243,1.0,0.0,48,0.00,CLR,CLR,0.00,WeatherDisplay:10.37,2013-04-26 20:25:00,
2013-04-26 13:30:00,70.5,48.7,29.59,South,180,2.3,2.3,46,0.00,CLR,,0.00,WeatherDisplay:10.37,2013-04-26 20:30:00,
2013-04-26 13:35:00,70.2,47.8,29.59,West,270,4.5,4.5,45,0.00,CLR,,0.00,WeatherDisplay:10.37,2013-04-26 20:35:00,
2013-04-26 13:40:00,69.8,48.7,29.59,SW,225,2.3,0.0,47,0.00,CLR,,0.00,WeatherDisplay:10.37,2013-04-26 20:40:00,
2013-04-26 13:45:00,69.8,48.7,29.59,West,270,5.8,5.8,47,0.00,CLR,,0.00,WeatherDisplay:10.37,2013-04-26 20:45:00,
2013-04-26 13:50:00,70.2,49.5,29.59,West,281,1.0,0.0,48,0.00,CLR,CLR,0.00,WeatherDisplay:10.37,2013-04-26 20:50:00,
2013-04-26 13:55:00,70.1,48.9,29.59,WNW,284,1.0,0.0,47,0.00,CLR,CLR,0.00,WeatherDisplay:10.37,2013-04-26 20:55:00,
2013-04-26 14:00:00,69.3,48.7,29.59,West,268,0.0,0.0,48,0.00,CLR,CLR,0.00,WeatherDisplay:10.37,2013-04-26 21:00:00,
2013-04-26 14:05:00,68.6,48.1,29.59,West,270,1.0,0.0,48,0.00,CLR,CLR,0.00,WeatherDisplay:10.37,2013-04-26 21:05:00,
2013-04-26 14:10:00,68.4,49.0,29.60,West,270,2.3,2.3,50,0.00,CLR,,0.00,WeatherDisplay:10.37,2013-04-26 21:10:00,
2013-04-26 14:15:00,68.0,48.7,29.59,West,273,2.0,0.0,50,0.00,CLR,CLR,0.00,WeatherDisplay:10.37,2013-04-26 21:15:00,
2013-04-26 14:20:00,68.0,49.2,29.59,West,280,1.0,0.0,51,0.00,CLR,CLR,0.00,WeatherDisplay:10.37,2013-04-26 21:20:00,
2013-04-26 14:25:00,68.4,49.5,29.59,West,270,2.3,0.0,51,0.00,CLR,,0.00,WeatherDisplay:10.37,2013-04-26 21:25:00,
2013-04-26 14:30:00,69.0,49.6,29.59,West,280,1.0,0.0,50,0.00,CLR,CLR,0.00,WeatherDisplay:10.37,2013-04-26 21:30:00,
2013-04-26 14:35:00,68.5,49.2,29.59,North,0,3.5,0.0,50,0.00,CLR,,0.00,WeatherDisplay:10.37,2013-04-26 21:35:00,
2013-04-26 14:40:00,68.7,48.8,29.59,West,270,1.1,1.1,49,0.00,CLR,,0.00,WeatherDisplay:10.37,2013-04-26 21:40:00,
2013-04-26 14:45:00,68.7,48.2,29.59,West,276,0.0,0.0,48,0.00,CLR,CLR,0.00,WeatherDisplay:10.37,2013-04-26 21:45:00,
2013-04-26 14:50:00,69.3,49.3,29.59,East,90,1.1,0.0,49,0.00,CLR,,0.00,WeatherDisplay:10.37,2013-04-26 21:50:00,
2013-04-26 14:55:00,69.4,49.4,29.59,SW,220,1.0,0.0,49,0.00,CLR,CLR,0.00,WeatherDisplay:10.37,2013-04-26 21:55:00,
2013-04-26 15:00:00,69.4,49.4,29.59,West,260,0.0,0.0,49,0.00,CLR,CLR,0.00,WeatherDisplay:10.37,2013-04-26 22:00:00,
2013-04-26 15:05:00,69.6,49.6,29.59,West,270,1.1,0.0,49,0.00,CLR,,0.00,WeatherDisplay:10.37,2013-04-26 22:05:00,
2013-04-26 15:10:00,69.6,49.1,29.59,North,0,1.1,0.0,48,0.00,CLR,,0.00,WeatherDisplay:10.37,2013-04-26 22:10:00,
2013-04-26 15:15:00,69.5,48.4,29.59,NW,311,0.0,0.0,47,0.00,CLR,CLR,0.00,WeatherDisplay:10.37,2013-04-26 22:15:00,
2013-04-26 15:20:00,68.9,48.9,29.58,West,270,1.1,0.0,49,0.00,CLR,,0.00,WeatherDisplay:10.37,2013-04-26 22:20:00,
2013-04-26 15:25:00,68.5,48.6,29.58,South,180,2.3,0.0,49,0.00,CLR,,0.00,WeatherDisplay:10.37,2013-04-26 22:25:00,
2013-04-26 15:30:00,68.5,49.7,29.58,SW,214,0.0,0.0,51,0.00,CLR,CLR,0.00,WeatherDisplay:10.37,2013-04-26 22:30:00,
2013-04-26 15:35:00,68.4,50.6,29.57,West,270,3.5,0.0,53,0.00,CLR,,0.00,WeatherDisplay:10.37,2013-04-26 22:35:00,
2013-04-26 15:40:00,68.2,50.4,29.57,SW,225,1.1,0.0,53,0.00,CLR,,0.00,WeatherDisplay:10.37,2013-04-26 22:40:00,
2013-04-26 15:45:00,68.2,50.9,29.57,NW,315,2.3,0.0,54,0.00,CLR,,0.00,WeatherDisplay:10.37,2013-04-26 22:45:00,
2013-04-26 15:50:00,67.8,50.1,29.57,West,270,3.5,0.0,53,0.00,CLR,,0.00,WeatherDisplay:10.37,2013-04-26 22:50:00,
2013-04-26 15:55:00,68.0,50.2,29.57,West,275,1.0,0.0,53,0.00,CLR,CLR,0.00,WeatherDisplay:10.37,2013-04-26 22:55:00,
2013-04-26 16:00:00,67.8,49.5,29.57,West,270,2.3,2.3,52,0.00,CLR,,0.00,WeatherDisplay:10.37,2013-04-26 23:00:00,
2013-04-26 16:05:00,67.8,50.1,29.56,West,270,2.3,2.3,53,0.00,CLR,,0.00,WeatherDisplay:10.37,2013-04-26 23:05:00,
2013-04-26 16:10:00,67.4,49.6,29.57,West,274,1.0,0.0,53,0.00,CLR,CLR,0.00,WeatherDisplay:10.37,2013-04-26 23:10:00,
2013-04-26 16:15:00,67.1,49.4,29.57,East,90,2.3,2.3,53,0.00,CLR,,0.00,WeatherDisplay:10.37,2013-04-26 23:15:00,
2013-04-26 16:20:00,67.5,50.7,29.56,NW,315,2.3,2.3,55,0.00,CLR,,0.00,WeatherDisplay:10.37,2013-04-26 23:20:00,
2013-04-26 16:25:00,68.0,51.2,29.57,West,274,1.0,0.0,55,0.00,CLR,CLR,0.00,WeatherDisplay:10.37,2013-04-26 23:25:00,
2013-04-26 16:30:00,68.4,50.6,29.57,SE,135,3.5,3.5,53,0.00,CLR,,0.00,WeatherDisplay:10.37,2013-04-26 23:30:00,
2013-04-26 16:35:00,68.1,50.8,29.57,WSW,242,1.0,0.0,54,0.00,CLR,CLR,0.00,WeatherDisplay:10.37,2013-04-26 23:35:00,
2013-04-26 16:40:00,67.8,51.1,29.57,West,270,2.3,2.3,55,0.00,CLR,,0.00,WeatherDisplay:10.37,2013-04-26 23:40:00,
2013-04-26 16:45:00,67.5,50.7,29.56,NW,315,1.1,1.1,55,0.00,CLR,,0.00,WeatherDisplay:10.37,2013-04-26 23:45:00,
2013-04-26 16:50:00,67.5,51.2,29.56,West,273,0.0,0.0,56,0.00,CLR,CLR,0.00,WeatherDisplay:10.37,2013-04-26 23:50:00,
2013-04-26 17:05:00,68.2,51.4,29.56,WSW,258,0.0,0.0,55,0.00,CLR,CLR,0.00,WeatherDisplay:10.37,2013-04-27 00:05:00,
2013-04-26 17:10:00,68.5,51.2,29.56,NE,45,1.1,0.0,54,0.00,CLR,,0.00,WeatherDisplay:10.37,2013-04-27 00:10:00,
2013-04-26 17:15:00,68.5,50.2,29.56,SE,135,1.1,1.1,52,0.00,CLR,,0.00,WeatherDisplay:10.37,2013-04-27 00:15:00,
2013-04-26 17:20:00,68.2,49.9,29.56,SE,135,1.1,0.0,52,0.00,CLR,,0.00,WeatherDisplay:10.37,2013-04-27 00:20:00,
2013-04-26 17:25:00,68.4,50.6,29.56,West,270,1.1,0.0,53,0.00,CLR,,0.00,WeatherDisplay:10.37,2013-04-27 00:25:00,
2013-04-26 17:30:00,68.7,50.9,29.55,North,0,1.1,1.1,53,0.00,CLR,,0.00,WeatherDisplay:10.37,2013-04-27 00:30:00,
2013-04-26 17:35:00,68.5,49.7,29.56,North,0,3.5,0.0,51,0.00,CLR,,0.00,WeatherDisplay:10.37,2013-04-27 00:35:00,
2013-04-26 17:40:00,68.5,50.2,29.55,West,270,1.1,0.0,52,0.00,CLR,,0.00,WeatherDisplay:10.37,2013-04-27 00:40:00,
2013-04-26 17:45:00,68.9,50.5,29.55,ENE,68,1.1,0.0,52,0.00,CLR,,0.00,WeatherDisplay:10.37,2013-04-27 00:45:00,
2013-04-26 17:50:00,69.1,50.7,29.55,West,270,1.1,0.0,52,0.00,CLR,,0.00,WeatherDisplay:10.37,2013-04-27 00:50:00,
2013-04-26 17:55:00,69.8,51.4,29.55,East,90,1.1,0.0,52,0.00,CLR,,0.00,WeatherDisplay:10.37,2013-04-27 00:55:00,
2013-04-26 18:00:00,70.0,52.1,29.55,West,270,2.3,2.3,53,0.00,CLR,,0.00,WeatherDisplay:10.37,2013-04-27 01:00:00,
2013-04-26 18:05:00,71.4,52.9,29.55,West,270,2.3,2.3,52,0.00,CLR,,0.00,WeatherDisplay:10.37,2013-04-27 01:05:00,
2013-04-26 18:10:00,71.8,53.2,29.55,West,270,2.3,2.3,52,0.00,CLR,,0.00,WeatherDisplay:10.37,2013-04-27 01:10:00,
2013-04-26 18:15:00,71.6,52.5,29.55,West,270,1.1,1.6,51,0.00,CLR,,0.00,WeatherDisplay:10.37,2013-04-27 01:15:00,
2013-04-26 18:20:00,71.6,52.0,29.55,West,270,1.1,0.0,50,0.00,CLR,,0.00,WeatherDisplay:10.37,2013-04-27 01:20:00,
2013-04-26 18:25:00,70.5,51.0,29.54,West,270,2.3,2.3,50,0.00,CLR,,0.00,WeatherDisplay:10.37,2013-04-27 01:25:00,
2013-04-26 18:30:00,71.6,53.6,29.55,SW,225,0.0,0.0,53,0.00,CLR,,0.00,WeatherDisplay:10.37,2013-04-27 01:30:00,
2013-04-26 18:35:00,73.2,52.9,29.55,West,270,2.3,2.3,49,0.00,CLR,,0.00,WeatherDisplay:10.37,2013-04-27 01:35:00,
2013-04-26 18:40:00,71.8,50.5,29.55,West,270,8.1,8.1,47,0.00,CLR,,0.00,WeatherDisplay:10.37,2013-04-27 01:40:00,
2013-04-26 18:45:00,70.2,50.6,29.55,NW,315,3.5,3.5,50,0.00,CLR,,0.00,WeatherDisplay:10.37,2013-04-27 01:45:00,
2013-04-26 18:50:00,68.5,49.2,29.55,West,270,6.9,6.9,50,0.00,CLR,,0.00,WeatherDisplay:10.37,2013-04-27 01:50:00,
2013-04-26 18:55:00,67.3,47.5,29.56,West,270,8.1,8.1,49,0.00,CLR,,0.00,WeatherDisplay:10.37,2013-04-27 01:55:00,
2013-04-26 19:01:00,65.3,44.5,29.56,West,270,6.9,6.9,47,0.00,CLR,,0.00,WeatherDisplay:10.37,2013-04-27 02:01:00,
2013-04-26 19:06:00,64.0,43.4,29.56,WSW,248,6.9,6.9,47,0.00,CLR,,0.00,WeatherDisplay:10.37,2013-04-27 02:06:00,
2013-04-26 19:11:00,63.1,42.6,29.57,West,270,5.8,5.8,47,0.00,CLR,,0.00,WeatherDisplay:10.37,2013-04-27 02:11:00,
2013-04-26 19:16:00,61.9,42.5,29.57,West,270,5.8,5.8,49,0.00,CLR,,0.00,WeatherDisplay:10.37,2013-04-27 02:16:00,
2013-04-26 19:21:00,61.3,42.0,29.57,West,270,5.8,5.8,49,0.00,CLR,,0.00,WeatherDisplay:10.37,2013-04-27 02:21:00,
2013-04-26 19:26:00,61.0,42.2,29.57,SW,225,2.3,0.0,50,0.00,CLR,,0.00,WeatherDisplay:10.37,2013-04-27 02:26:00,
2013-04-26 19:31:00,60.6,42.4,29.56,NE,45,2.3,0.0,51,0.00,CLR,,0.00,WeatherDisplay:10.37,2013-04-27 02:31:00,
2013-04-26 19:36:00,60.3,42.0,29.57,West,270,2.3,2.3,51,0.00,CLR,,0.00,WeatherDisplay:10.37,2013-04-27 02:36:00,
2013-04-26 19:41:00,59.9,41.7,29.56,NE,45,1.1,0.0,51,0.00,CLR,,0.00,WeatherDisplay:10.37,2013-04-27 02:41:00,
2013-04-26 19:46:00,59.5,40.9,29.56,West,270,3.5,3.5,50,0.00,CLR,,0.00,WeatherDisplay:10.37,2013-04-27 02:46:00,
2013-04-26 19:51:00,59.4,41.2,29.56,SW,225,1.1,0.0,51,0.00,CLR,,0.00,WeatherDisplay:10.37,2013-04-27 02:51:00,
2013-04-26 19:56:00,59.0,40.9,29.55,SW,225,1.1,0.0,51,0.00,CLR,,0.00,WeatherDisplay:10.37,2013-04-27 02:56:00,
2013-04-26 20:01:00,58.8,40.7,29.56,West,270,2.3,0.0,51,0.00,CLR,,0.00,WeatherDisplay:10.37,2013-04-27 03:01:00,
2013-04-26 20:06:00,58.5,40.4,29.56,West,270,1.1,0.0,51,0.00,CLR,,0.00,WeatherDisplay:10.37,2013-04-27 03:06:00,
2013-04-26 20:11:00,58.3,40.7,29.55,West,270,0.0,0.0,52,0.00,CLR,,0.00,WeatherDisplay:10.37,2013-04-27 03:11:00,
2013-04-26 20:16:00,57.7,40.2,29.55,West,270,0.0,0.0,52,0.00,CLR,,0.00,WeatherDisplay:10.37,2013-04-27 03:16:00,
2013-04-26 20:21:00,57.4,39.9,29.55,West,270,0.0,0.0,52,0.00,CLR,,0.00,WeatherDisplay:10.37,2013-04-27 03:21:00,
2013-04-26 20:26:00,57.0,40.0,29.55,West,270,0.0,0.0,53,0.00,CLR,,0.00,WeatherDisplay:10.37,2013-04-27 03:26:00,
2013-04-26 20:31:00,56.7,39.7,29.55,West,270,0.0,0.0,53,0.00,CLR,,0.00,WeatherDisplay:10.37,2013-04-27 03:31:00,
2013-04-26 20:36:00,56.5,40.0,29.56,West,270,0.0,0.0,54,0.00,CLR,,0.00,WeatherDisplay:10.37,2013-04-27 03:36:00,
2013-04-26 20:41:00,56.3,40.3,29.57,West,270,1.1,0.0,55,0.00,CLR,,0.00,WeatherDisplay:10.37,2013-04-27 03:41:00,
2013-04-26 20:46:00,56.1,40.6,29.56,West,270,0.0,0.0,56,0.00,CLR,,0.00,WeatherDisplay:10.37,2013-04-27 03:46:00,
2013-04-26 20:51:00,55.9,40.5,29.56,West,270,0.0,0.0,56,0.00,CLR,,0.00,WeatherDisplay:10.37,2013-04-27 03:51:00,
2013-04-26 20:56:00,55.9,40.5,29.57,West,270,0.0,0.0,56,0.00,CLR,,0.00,WeatherDisplay:10.37,2013-04-27 03:56:00,
2013-04-26 21:01:00,55.8,40.3,29.57,West,270,0.0,0.0,56,0.00,CLR,,0.00,WeatherDisplay:10.37,2013-04-27 04:01:00,
2013-04-26 21:06:00,55.6,40.1,29.57,West,270,0.0,0.0,56,0.00,CLR,,0.00,WeatherDisplay:10.37,2013-04-27 04:06:00,
2013-04-26 21:11:00,55.6,40.6,29.57,West,270,0.0,0.0,57,0.00,CLR,,0.00,WeatherDisplay:10.37,2013-04-27 04:11:00,
2013-04-26 21:16:00,55.4,40.9,29.57,West,270,0.0,0.0,58,0.00,CLR,,0.00,WeatherDisplay:10.37,2013-04-27 04:16:00,
2013-04-26 21:21:00,55.4,40.9,29.57,West,270,0.0,0.0,58,0.00,CLR,,0.00,WeatherDisplay:10.37,2013-04-27 04:21:00,
2013-04-26 21:26:00,55.2,40.7,29.57,West,270,0.0,0.0,58,0.00,CLR,,0.00,WeatherDisplay:10.37,2013-04-27 04:26:00,
2013-04-26 21:31:00,55.2,41.1,29.57,West,270,0.0,0.0,59,0.00,CLR,,0.00,WeatherDisplay:10.37,2013-04-27 04:31:00,
2013-04-26 21:36:00,55.2,41.1,29.57,West,270,0.0,0.0,59,0.00,CLR,,0.00,WeatherDisplay:10.37,2013-04-27 04:36:00,
2013-04-26 21:41:00,54.9,41.2,29.57,West,270,0.0,0.0,60,0.00,CLR,,0.00,WeatherDisplay:10.37,2013-04-27 04:41:00,
2013-04-26 21:46:00,54.9,41.2,29.57,West,270,0.0,0.0,60,0.00,CLR,,0.00,WeatherDisplay:10.37,2013-04-27 04:46:00,
2013-04-26 21:51:00,54.9,41.7,29.58,West,270,0.0,0.0,61,0.00,CLR,,0.00,WeatherDisplay:10.37,2013-04-27 04:51:00,
2013-04-26 21:56:00,54.7,41.9,29.58,West,270,0.0,0.0,62,0.00,CLR,,0.00,WeatherDisplay:10.37,2013-04-27 04:56:00,
2013-04-26 22:01:00,54.9,42.1,29.58,West,270,1.1,1.1,62,0.00,CLR,,0.00,WeatherDisplay:10.37,2013-04-27 05:01:00,
2013-04-26 22:06:00,55.0,41.8,29.57,SW,225,0.0,0.0,61,0.00,CLR,,0.00,WeatherDisplay:10.37,2013-04-27 05:06:00,
2013-04-26 22:11:00,55.0,41.8,29.57,SW,225,1.1,0.0,61,0.00,CLR,,0.00,WeatherDisplay:10.37,2013-04-27 05:11:00,
2013-04-26 22:16:00,54.9,41.7,29.57,SW,225,0.0,0.0,61,0.00,CLR,,0.00,WeatherDisplay:10.37,2013-04-27 05:16:00,
2013-04-26 22:21:00,54.7,41.9,29.57,SW,225,0.0,0.0,62,0.00,CLR,,0.00,WeatherDisplay:10.37,2013-04-27 05:21:00,
2013-04-26 22:26:00,54.5,41.7,29.57,SW,225,0.0,0.0,62,0.00,CLR,,0.00,WeatherDisplay:10.37,2013-04-27 05:26:00,
2013-04-26 22:31:00,54.3,41.6,29.57,SW,225,0.0,0.0,62,0.00,CLR,,0.00,WeatherDisplay:10.37,2013-04-27 05:31:00,
2013-04-26 22:36:00,54.3,42.0,29.56,SW,225,0.0,0.0,63,0.00,CLR,,0.00,WeatherDisplay:10.37,2013-04-27 05:36:00,
2013-04-26 22:41:00,54.1,41.8,29.56,SW,225,0.0,0.0,63,0.00,CLR,,0.00,WeatherDisplay:10.37,2013-04-27 05:41:00,
2013-04-26 22:46:00,54.1,42.2,29.57,SW,225,0.0,0.0,64,0.00,CLR,,0.00,WeatherDisplay:10.37,2013-04-27 05:46:00,
2013-04-26 22:51:00,54.0,42.1,29.57,SW,225,0.0,0.0,64,0.00,CLR,,0.00,WeatherDisplay:10.37,2013-04-27 05:51:00,
2013-04-26 22:56:00,53.8,41.9,29.56,SW,225,0.0,0.0,64,0.00,CLR,,0.00,WeatherDisplay:10.37,2013-04-27 05:56:00,
2013-04-26 23:01:00,54.0,42.5,29.56,SW,225,0.0,0.0,65,0.00,CLR,,0.00,WeatherDisplay:10.37,2013-04-27 06:01:00,
2013-04-26 23:06:00,53.8,42.3,29.56,SW,225,0.0,0.0,65,0.00,CLR,,0.00,WeatherDisplay:10.37,2013-04-27 06:06:00,
2013-04-26 23:11:00,53.8,42.3,29.55,NE,45,1.1,0.0,65,0.00,CLR,,0.00,WeatherDisplay:10.37,2013-04-27 06:11:00,
2013-04-26 23:16:00,53.6,42.5,29.55,East,90,1.1,0.0,66,0.00,CLR,,0.00,WeatherDisplay:10.37,2013-04-27 06:16:00,
2013-04-26 23:21:00,53.6,42.5,29.54,East,90,1.1,0.0,66,0.00,CLR,,0.00,WeatherDisplay:10.37,2013-04-27 06:21:00,
2013-04-26 23:26:00,53.6,42.9,29.55,East,90,0.0,0.0,67,0.00,CLR,,0.00,WeatherDisplay:10.37,2013-04-27 06:26:00,
2013-04-26 23:31:00,53.4,42.7,29.55,East,90,0.0,0.0,67,0.00,CLR,,0.00,WeatherDisplay:10.37,2013-04-27 06:31:00,
2013-04-26 23:36:00,53.4,42.7,29.55,East,90,0.0,0.0,67,0.00,CLR,,0.00,WeatherDisplay:10.37,2013-04-27 06:36:00,
2013-04-26 23:41:00,53.2,42.9,29.54,East,90,0.0,0.0,68,0.00,CLR,,0.00,WeatherDisplay:10.37,2013-04-27 06:41:00,
2013-04-26 23:46:00,53.2,42.9,29.54,East,90,0.0,0.0,68,0.00,CLR,,0.00,WeatherDisplay:10.37,2013-04-27 06:46:00,
2013-04-26 23:51:00,53.2,42.9,29.55,East,90,0.0,0.0,68,0.00,CLR,,0.00,WeatherDisplay:10.37,2013-04-27 06:51:00,
2013-04-26 23:56:00,53.1,42.8,29.54,East,90,0.0,0.0,68,0.00,CLR,,0.00,WeatherDisplay:10.37,2013-04-27 06:56:00,